Weather History for KATL - January, 2014

Change the Weather History Date:

Wednesday, January 1, 2014

  Actual Average Record
Temperature  
Mean Temperature 41 °F 43 °F  
Max Temperature 47 °F 52 °F 75 °F (1952)
Min Temperature 35 °F 34 °F 7 °F (1928)
Degree Days  
Heating Degree Days 24 22  
Month to date heating degree days 24 22  
Since 1 July heating degree days 1074 1103  
Cooling Degree Days 0 0  
Month to date cooling degree days 0 0  
Year to date cooling degree days 0 0  
Moisture  
Dew Point 31 °F    
Average Humidity 65    
Maximum Humidity 76    
Minimum Humidity 53    
Precipitation  
Precipitation T in 0.11 in 1.37 in (1955)
Month to date precipitation T 0.11  
Year to date precipitation T 0.11  
Snow  
Snow 0.00 in 0.00 in 0.10 in (2001)
Month to date snowfall 0.0 0.0  
Since 1 July snowfall 0.4 0.4  
Snow Depth 0.00 in    
Sea Level Pressure  
Sea Level Pressure 30.28 in    
Wind  
Wind Speed 4 mph (ESE)    
Max Wind Speed 10 mph    
Max Gust Speed 30 mph    
Visibility 10 miles    
Events Rain    
T = Trace of Precipitation, MM = Missing Value Source: NWS Daily Summary

Daily Weather History Graph

Daily Weather History Graph

Search for Another Location

Airport or City:

Trip Planner

Search our weather history database for the weather conditions in past years. The results will help you decide how hot, cold, wet, or windy it might be!

Date:

Astronomy

Jan. 01, 2014 Rise Set
Actual Time 7:42 AM EST 5:40 PM EST
Civil Twilight 7:14 AM EST 6:08 PM EST
Nautical Twilight 6:43 AM EST 6:39 PM EST
Astronomical Twilight 6:13 AM EST 7:09 PM EST
Moon 7:35 AM EST (1/1) 6:20 PM EST (1/1)
Length of Visible Light 10h 53m
Length of Day
9h 58m
New Moon, 0% of the Moon is Illuminated
Jan 1
New Moon
Jan 7
First Quarter
Jan 15
Full
Jan 24
Last Quarter
Jan 30
New

Hourly Weather History & Observations

Time (EST) Temp. Windchill Dew Point Humidity Pressure Visibility Wind Dir Wind Speed Gust Speed Precip Events Conditions
12:52 AM 37.0 °F - 27.0 °F 67% 30.35 in 10.0 mi Calm Calm - N/A   Overcast
1:52 AM 35.1 °F 32.2 °F 27.0 °F 72% 30.34 in 10.0 mi South 3.5 mph - N/A   Overcast
2:52 AM 36.0 °F - 28.9 °F 76% 30.34 in 10.0 mi Calm Calm - N/A   Overcast
3:52 AM 36.0 °F - 28.9 °F 76% 30.34 in 10.0 mi Calm Calm - N/A   Overcast
4:52 AM 36.0 °F 33.3 °F 28.0 °F 73% 30.32 in 10.0 mi ESE 3.5 mph - N/A   Overcast
5:52 AM 36.0 °F 32.1 °F 28.0 °F 73% 30.32 in 10.0 mi East 4.6 mph - N/A   Overcast
6:52 AM 36.0 °F 32.1 °F 28.0 °F 73% 30.34 in 10.0 mi ENE 4.6 mph - N/A   Overcast
7:52 AM 36.0 °F 33.3 °F 28.0 °F 73% 30.35 in 10.0 mi ESE 3.5 mph - N/A   Overcast
8:52 AM 37.0 °F 33.3 °F 30.0 °F 76% 30.35 in 10.0 mi East 4.6 mph - N/A   Mostly Cloudy
9:52 AM 39.0 °F 34.8 °F 28.9 °F 67% 30.36 in 10.0 mi ENE 5.8 mph - N/A   Overcast
10:52 AM 41.0 °F 39.0 °F 28.9 °F 62% 30.37 in 10.0 mi East 3.5 mph - N/A   Mostly Cloudy
11:52 AM 43.0 °F 40.3 °F 28.9 °F 58% 30.34 in 10.0 mi SSE 4.6 mph - N/A   Mostly Cloudy
12:52 PM 45.0 °F 43.5 °F 28.9 °F 53% 30.30 in 10.0 mi ESE 3.5 mph - N/A   Mostly Cloudy
1:52 PM 45.0 °F 43.5 °F 28.9 °F 53% 30.27 in 10.0 mi SE 3.5 mph - N/A   Mostly Cloudy
2:52 PM 46.0 °F 44.8 °F 30.0 °F 54% 30.25 in 10.0 mi SE 3.5 mph - N/A   Overcast
3:52 PM 46.9 °F - 32.0 °F 56% 30.23 in 10.0 mi SE 4.6 mph - N/A   Overcast
4:52 PM 46.9 °F - 33.1 °F 59% 30.22 in 10.0 mi ESE 3.5 mph - N/A   Overcast
5:52 PM 46.0 °F 44.8 °F 34.0 °F 63% 30.22 in 10.0 mi SE 3.5 mph - N/A   Overcast
6:52 PM 46.0 °F 44.8 °F 34.0 °F 63% 30.22 in 10.0 mi SE 3.5 mph - N/A   Overcast
7:52 PM 45.0 °F 41.8 °F 36.0 °F 71% 30.21 in 10.0 mi SE 5.8 mph - N/A   Overcast
8:52 PM 45.0 °F - 37.0 °F 74% 30.19 in 10.0 mi Calm Calm - N/A   Overcast
9:52 PM 45.0 °F 42.6 °F 37.0 °F 74% 30.18 in 10.0 mi ESE 4.6 mph - N/A   Overcast
10:52 PM 44.1 °F 42.5 °F 37.9 °F 79% 30.17 in 10.0 mi East 3.5 mph - 0.00 in   Overcast
11:52 PM 44.1 °F 40.8 °F 39.0 °F 82% 30.16 in 8.0 mi SE 5.8 mph - 0.00 in Rain Light Rain